Location: Bay Shore Mobile Home Park
(38.5762°N, 75.0841°W)
Time: 08:27:07
(UTC+00:00)

USA 215 - Pass Details

Date: 15 November 2025
Orbit: 1101 x 1106 km, 123.0° (Epoch: 02 December)

Event Time Altitude Azimuth Distance (km) Brightness Sun altitude
Rises 23:31:05 0° 151° (SSE) 3,905 5.9 -20.4°
Reaches altitude 10° 23:33:39 10° 156° (SSE) 2,951 5.3 -20.9°
Maximum altitude 23:39:56 50° 230° (SW) 1,381 4.1 -22.1°
Drops below altitude 10° 23:46:15 10° 305° (NW) 2,968 6.2 -23.3°
Sets 23:48:51 0° 310° (NW) 3,929 6.8 -23.8°
